{"data":{"norad_id":63731,"intl_designator":"2025-088H","name":"KUIPER-00015","alt_names":[],"object_type":"PAYLOAD","status":"ACTIVE","operator":null,"country":"US","launch_date":"2025-04-28","launch_site_code":"AFETR","launch_vehicle":null,"mission":null,"orbit_class":"UNKNOWN","rcs_meters":null,"size_class":null,"mass_kg":null,"dimensions":null,"purposes":[],"wikipedia_slug":null,"has_3d_model":false,"image_url":null,"decayed_at":null,"tle_current":{"epoch":"2026-05-25T03:32:23.941248Z","epoch_age_seconds":52555,"freshness":"FRESH","line1":"1 63731U 25088H   26145.14749932  .00001208  00000+0  18737-3 0  9999","line2":"2 63731  51.8984 140.0275 0000498  44.7314 315.3688 14.79941868 59027","mean_motion":14.79941868,"eccentricity":4.98e-5,"inclination_deg":51.8984,"raan_deg":140.0275,"arg_perigee_deg":44.7314,"mean_anomaly_deg":315.3688,"bstar":0.00018737,"rev_number":5902,"period_min":97.301119127471,"perigee_km":629.15865453344,"apogee_km":629.85661593911,"semimajor_km":7007.6446352363,"source":"CELESTRAK","updated_at":"2026-05-25T13:38:03.926098Z"}}}